KE5WLM Weather Reports


time (UTC)temp
C
wind
direction
speed
KPH
gust
KPH
rain 1hr
cm
rain 24hr
cm
rain mn
cm
humidity
%
barometer
mb
20260506104543 16 211 0.0 0.0 0.00 0.00 0.00 44 1013.0
20260506104043 16 211 0.0 0.0 0.00 0.00 0.00 42 1013.0
20260506103542 16 211 0.0 0.0 0.00 0.00 0.00 43 1013.0
20260506103051 16 211 0.0 0.0 0.00 0.00 0.00 46 1012.8
20260506102541 15 211 0.0 0.0 0.00 0.00 0.00 46 1012.8
20260506102040 15 211 0.0 0.0 0.00 0.00 0.00 51 1012.7
20260506101540 15 211 0.0 0.0 0.00 0.00 0.00 51 1012.7
20260506101041 15 211 0.0 1.6 0.00 0.00 0.00 51 1012.7
20260506100541 15 211 0.0 1.6 0.00 0.00 0.00 54 1012.6
20260506100039 15 211 0.0 0.0 0.00 0.00 0.00 54 1012.6
20260506095538 15 211 0.0 0.0 0.00 0.00 0.00 54 1012.6
20260506095037 15 211 0.0 0.0 0.00 0.00 0.00 54 1012.6
20260506094538 15 211 0.0 0.0 0.00 0.00 0.00 54 1012.4
20260506094040 15 211 0.0 0.0 0.00 0.00 0.00 54 1012.4
20260506094017 15 211 0.0 0.0 0.00 0.00 0.00 53 1012.4
20260506093538 15 211 0.0 0.0 0.00 0.00 0.00 54 1012.4
20260506093033 16 211 0.0 0.0 0.00 0.00 0.00 53 1012.4
20260506092536 16 211 0.0 0.0 0.00 0.00 0.00 53 1012.3
20260506092032 16 211 0.0 1.6 0.00 0.00 0.00 53 1012.3
20260506091534 16 211 0.0 1.6 0.00 0.00 0.00 52 1012.2
20260506091036 16 211 0.0 6.4 0.00 0.00 0.00 52 1012.2
20260506090530 16 241 1.6 6.4 0.00 0.00 0.00 52 1012.1
20260506090033 16 360 0.0 0.0 0.00 0.00 0.00 50 1012.0
20260506085530 17 360 0.0 0.0 0.00 0.00 0.00 48 1012.0
20260506085029 17 360 0.0 0.0 0.00 0.00 0.00 48 1012.0
20260506084527 17 360 0.0 1.6 0.00 0.00 0.00 46 1012.0
20260506084027 18 360 0.0 9.7 0.00 0.00 0.00 45 1011.9
20260506083529 17 360 0.0 9.7 0.00 0.00 0.00 43 1012.0
20260506083027 17 314 0.0 0.0 0.00 0.00 0.00 48 1011.9
20260506082526 17 314 0.0 3.2 0.00 0.00 0.00 48 1011.8
20260506082026 16 314 0.0 4.8 0.00 0.00 0.00 46 1011.9
20260506081525 17 315 0.0 0.0 0.00 0.00 0.00 45 1011.8
20260506081026 17 315 0.0 4.8 0.00 0.00 0.00 44 1011.8
20260506080524 17 315 1.6 4.8 0.00 0.00 0.00 44 1011.9
20260506073519 17 307 0.0 0.0 0.00 0.00 0.00 47 1011.7
20260506073019 17 307 0.0 0.0 0.00 0.00 0.00 47 1011.6
20260506072519 17 307 0.0 1.6 0.00 0.00 0.00 47 1011.6
20260506072022 17 307 0.0 4.8 0.00 0.00 0.00 49 1011.5
20260506071519 17 307 0.0 4.8 0.00 0.00 0.00 51 1011.6
20260506071017 17 311 1.6 4.8 0.00 0.00 0.00 48 1011.5
20260506070520 17 248 0.0 4.8 0.00 0.00 0.00 48 1011.5
20260506070149 17 248 0.0 4.8 0.00 0.00 0.00 49 1011.5
20260506062512 17 252 0.0 0.0 0.00 0.00 0.00 51 1011.3
20260506062011 17 252 0.0 0.0 0.00 0.00 0.00 52 1011.3
20260506061510 17 252 0.0 3.2 0.00 0.00 0.00 51 1011.3
20260506061012 17 252 0.0 3.2 0.00 0.00 0.00 53 1011.2
20260506060508 17 252 0.0 6.4 0.00 0.00 0.00 51 1011.2
20260506051005 18 246 0.0 0.0 0.00 0.00 0.00 51 1011.0
20260506050504 18 246 0.0 1.6 0.00 0.00 0.00 53 1010.9
20260506045005 18 261 1.6 4.8 0.00 0.00 0.00 52 1010.9
20260506044502 18 306 0.0 1.6 0.00 0.00 0.00 50 1010.9
20260506044003 18 306 0.0 1.6 0.00 0.00 0.00 50 1011.0
20260506043501 18 306 0.0 1.6 0.00 0.00 0.00 50 1010.9
20260506043002 18 306 0.0 4.8 0.00 0.00 0.00 51 1010.9
20260506042600 18 306 3.2 4.8 0.00 0.00 0.00 51 1010.8
20260506042059 18 317 0.0 0.0 0.00 0.00 0.00 50 1010.8
20260506041602 18 317 0.0 1.6 0.00 0.00 0.00 50 1010.9
20260506041056 18 317 0.0 0.0 0.00 0.00 0.00 49 1010.8
20260506040556 19 317 0.0 6.4 0.00 0.00 0.00 49 1010.8
20260506040056 19 317 0.0 11.3 0.00 0.00 0.00 48 1010.8
20260506035557 20 242 1.6 11.3 0.00 0.00 0.00 46 1010.8
20260506035056 20 240 0.0 6.4 0.00 0.00 0.00 46 1010.8
20260506034613 20 240 0.0 6.4 0.00 0.00 0.00 45 1010.7
20260506034056 20 240 0.0 4.8 0.00 0.00 0.00 43 1010.8
20260506033554 20 240 0.0 4.8 0.00 0.00 0.00 40 1010.6
20260506033053 21 257 0.0 4.8 0.00 0.00 0.00 41 1010.6
20260506032559 21 273 0.0 0.0 0.00 0.00 0.00 40 1010.5
20260506032058 21 273 0.0 0.0 0.00 0.00 0.00 39 1010.4
20260506031601 21 273 0.0 6.4 0.00 0.00 0.00 39 1010.4
20260506031053 21 273 1.6 8.0 0.00 0.00 0.00 40 1010.3
20260506030554 21 248 0.0 6.4 0.00 0.00 0.00 40 1010.3
20260506030052 21 249 0.0 1.6 0.00 0.00 0.00 41 1010.3
20260506025556 21 249 0.0 0.0 0.00 0.00 0.00 41 1010.2
20260506025052 21 249 0.0 6.4 0.00 0.00 0.00 41 1010.3
20260506024608 21 246 1.6 6.4 0.00 0.00 0.00 40 1010.2
20260506024052 21 246 0.0 1.6 0.00 0.00 0.00 39 1010.2
20260506023552 22 261 0.0 0.0 0.00 0.00 0.00 39 1010.3
20260506023051 22 261 0.0 1.6 0.00 0.00 0.00 38 1010.3
20260506022551 22 261 0.0 9.7 0.00 0.00 0.00 37 1010.2
20260506022051 22 257 1.6 9.7 0.00 0.00 0.00 37 1010.1
20260506021552 22 269 0.0 0.0 0.00 0.00 0.00 36 1010.2
20260506021051 23 269 0.0 1.6 0.00 0.00 0.00 36 1010.2
20260506020650 23 269 0.0 3.2 0.00 0.00 0.00 35 1010.1
20260506020050 23 269 0.0 11.3 0.00 0.00 0.00 35 1010.1
20260506015551 23 266 3.2 11.3 0.00 0.00 0.00 34 1010.1
20260506015049 23 283 0.0 6.4 0.00 0.00 0.00 34 1010.1
20260506014551 24 360 0.0 11.3 0.00 0.00 0.00 33 1010.0
20260506014049 24 246 0.0 12.9 0.00 0.00 0.00 33 1010.0
20260506013553 24 246 0.0 12.9 0.00 0.00 0.00 32 1010.0
20260506013102 24 248 4.8 11.3 0.00 0.00 0.00 32 1009.9
20260506012549 25 251 1.6 11.3 0.00 0.00 0.00 32 1009.9
20260506012049 25 240 0.0 12.9 0.00 0.00 0.00 32 1010.0
20260506011603 25 240 3.2 17.7 0.00 0.00 0.00 31 1010.0
20260506011048 25 259 4.8 16.1 0.00 0.00 0.00 31 1010.0
20260506010548 25 252 3.2 16.1 0.00 0.00 0.00 31 1009.9
20260506010050 25 236 4.8 19.3 0.00 0.00 0.00 31 1009.9
20260506005548 25 249 3.2 20.9 0.00 0.00 0.00 30 1009.9
20260506005049 25 236 4.8 24.1 0.00 0.00 0.00 30 1009.9
20260506004548 25 241 4.8 24.1 0.00 0.00 0.00 31 1009.9
20260506004047 25 246 6.4 22.5 0.00 0.00 0.00 31 1009.9
20260506003547 25 221 8.0 25.7 0.00 0.00 0.00 31 1009.9
20260506003047 25 198 1.6 12.9 0.00 0.00 0.00 31 1009.9
20260506002547 25 257 3.2 14.5 0.00 0.00 0.00 31 1009.9
20260506002047 26 232 0.0 12.9 0.00 0.00 0.00 31 1010.0
20260506001547 25 248 1.6 19.3 0.00 0.00 0.00 32 1010.0
20260506001047 25 233 4.8 19.3 0.00 0.00 0.00 31 1010.1
20260506000548 25 232 0.0 16.1 0.00 0.00 0.00 31 1010.1
20260506000049 25 193 6.4 16.1 0.00 0.00 0.00 31 1010.1
20260505235545 25 223 6.4 19.3 0.00 0.00 0.00 30 1010.2
20260505235046 25 246 8.0 22.5 0.00 0.00 0.00 30 1010.3
20260505234546 26 232 8.0 19.3 0.00 0.00 0.00 30 1010.1
20260505234045 26 246 1.6 17.7 0.00 0.00 0.00 30 1010.2
20260505233545 26 239 4.8 20.9 0.00 0.00 0.00 29 1010.2
20260505233045 26 240 1.6 27.4 0.00 0.00 0.00 29 1010.2
20260505232545 26 238 9.7 27.4 0.00 0.00 0.00 29 1010.2
20260505232047 26 227 8.0 29.0 0.00 0.00 0.00 29 1010.3
20260505231545 26 262 12.9 29.0 0.00 0.00 0.00 28 1010.4
20260505231047 26 251 8.0 22.5 0.00 0.00 0.00 28 1010.2
20260505230544 26 300 4.8 20.9 0.00 0.00 0.00 28 1010.3
20260505230055 26 260 4.8 14.5 0.00 0.00 0.00 30 1010.3
20260505225546 27 237 1.6 19.3 0.00 0.00 0.00 28 1010.2
20260505225044 27 246 9.7 19.3 0.00 0.00 0.00 28 1010.1
20260505224546 27 242 6.4 17.7 0.00 0.00 0.00 27 1010.2
20260505224045 28 257 4.8 20.9 0.00 0.00 0.00 27 1010.2
20260505223543 27 218 9.7 22.5 0.00 0.00 0.00 26 1010.0
20260505223055 27 263 1.6 25.7 0.00 0.00 0.00 28 1010.1
20260505222542 27 251 1.6 25.7 0.00 0.00 0.00 28 1010.1
20260505222042 27 254 3.2 25.7 0.00 0.00 0.00 27 1010.1
20260505221542 27 246 8.0 25.7 0.00 0.00 0.00 27 1010.2
20260505221044 27 250 8.0 20.9 0.00 0.00 0.00 29 1010.0
20260505220541 26 263 4.8 29.0 0.00 0.00 0.00 28 1010.2
20260505220044 27 227 12.9 25.7 0.00 0.00 0.00 27 1010.3
20260505215542 27 240 12.9 24.1 0.00 0.00 0.00 28 1010.3
20260505215041 28 243 4.8 22.5 0.00 0.00 0.00 27 1010.3
20260505214542 27 247 1.6 24.1 0.00 0.00 0.00 28 1010.3
20260505214041 27 285 8.0 35.4 0.00 0.00 0.00 28 1010.2
20260505213543 28 204 4.8 35.4 0.00 0.00 0.00 26 1010.3
20260505213052 28 259 6.4 27.4 0.00 0.00 0.00 28 1010.3
20260505212540 28 245 8.0 30.6 0.00 0.00 0.00 27 1010.5
20260505212038 27 248 12.9 33.8 0.00 0.00 0.00 28 1010.5
20260505211537 26 242 14.5 33.8 0.00 0.00 0.00 28 1010.6
20260505211036 26 232 6.4 24.1 0.00 0.00 0.00 29 1010.5
20260505210538 26 268 8.0 29.0 0.00 0.00 0.00 29 1010.5
20260505210032 26 264 8.0 29.0 0.00 0.00 0.00 29 1010.6
20260505205532 25 244 0.0 25.7 0.00 0.00 0.00 29 1010.7
20260505205032 25 250 3.2 25.7 0.00 0.00 0.00 29 1010.7
20260505204530 25 246 3.2 22.5 0.00 0.00 0.00 29 1010.8
20260505204032 25 227 6.4 20.9 0.00 0.00 0.00 29 1010.9
20260505203527 25 245 3.2 25.7 0.00 0.00 0.00 29 1011.0
20260505203040 25 225 6.4 24.1 0.00 0.00 0.00 29 1011.0
20260505202527 25 191 3.2 24.1 0.00 0.00 0.00 30 1011.0
20260505202026 25 236 4.8 22.5 0.00 0.00 0.00 30 1011.2
20260505201527 25 238 3.2 22.5 0.00 0.00 0.00 30 1011.3
20260505201023 24 236 4.8 14.5 0.00 0.00 0.00 31 1011.2
20260505200525 24 223 0.0 6.4 0.00 0.00 0.00 32 1011.3
20260505200031 24 224 0.0 0.0 0.00 0.00 0.00 32 1011.1
20260505195521 23 224 0.0 4.8 0.00 0.00 0.00 34 1011.1
20260505195023 23 224 0.0 6.4 0.00 0.00 0.00 32 1011.1
20260505194521 23 224 0.0 9.7 0.00 0.00 0.00 32 1011.1
20260505194021 23 231 1.6 8.0 0.00 0.00 0.00 33 1011.1
20260505193521 23 246 0.0 6.4 0.00 0.00 0.00 31 1011.2
20260505193022 23 246 1.6 6.4 0.00 0.00 0.00 31 1011.3
20260505192524 23 246 0.0 14.5 0.00 0.00 0.00 31 1011.2
20260505192020 23 244 0.0 14.5 0.00 0.00 0.00 30 1011.4
20260505191620 23 239 1.6 12.9 0.00 0.00 0.00 30 1011.4
20260505191021 23 233 0.0 6.4 0.00 0.00 0.00 30 1011.5
20260505190524 23 233 0.0 11.3 0.00 0.00 0.00 30 1011.5
20260505190019 23 229 4.8 11.3 0.00 0.00 0.00 31 1011.6
20260505185522 23 222 0.0 1.6 0.00 0.00 0.00 30 1011.6
20260505185019 23 219 0.0 11.3 0.00 0.00 0.00 32 1011.4
20260505184523 23 218 0.0 11.3 0.00 0.00 0.00 32 1011.6
20260505184019 23 175 0.0 8.0 0.00 0.00 0.00 33 1011.4
20260505183518 23 175 0.0 8.0 0.00 0.00 0.00 32 1011.7
20260505183020 23 165 0.0 8.0 0.00 0.00 0.00 33 1011.8
20260505182518 23 186 0.0 6.4 0.00 0.00 0.00 33 1011.8
20260505182018 23 182 0.0 1.6 0.00 0.00 0.00 32 1011.7
20260505181518 23 182 0.0 3.2 0.00 0.00 0.00 34 1011.7
20260505181019 23 182 0.0 8.0 0.00 0.00 0.00 34 1011.9
20260505180521 23 182 0.0 8.0 0.00 0.00 0.00 33 1012.0
20260505180017 23 238 0.0 1.6 0.00 0.00 0.00 33 1012.0
20260505175517 24 236 0.0 19.3 0.00 0.00 0.00 32 1011.9
20260505175017 24 242 6.4 19.3 0.00 0.00 0.00 32 1012.0
20260505174517 24 230 4.8 16.1 0.00 0.00 0.00 32 1012.0
20260505174016 24 242 0.0 6.4 0.00 0.00 0.00 33 1012.1
20260505173517 24 243 0.0 6.4 0.00 0.00 0.00 34 1012.0
20260505173034 24 248 0.0 1.6 0.00 0.00 0.00 34 1012.0
20260505172514 24 248 0.0 4.8 0.00 0.00 0.00 34 1011.8
20260505172014 24 248 0.0 14.5 0.00 0.00 0.00 34 1011.9
20260505171516 24 253 1.6 9.7 0.00 0.00 0.00 33 1011.9
20260505171013 24 261 0.0 11.3 0.00 0.00 0.00 33 1011.9
20260505170512 23 244 0.0 17.7 0.00 0.00 0.00 34 1012.0
20260505170017 23 250 1.6 17.7 0.00 0.00 0.00 34 1011.9
20260505165510 23 245 3.2 12.9 0.00 0.00 0.00 34 1011.9
20260505165010 23 236 6.4 14.5 0.00 0.00 0.00 34 1011.8
20260505164527 23 241 0.0 19.3 0.00 0.00 0.00 35 1011.8
20260505164009 23 250 6.4 24.1 0.00 0.00 0.00 34 1011.9
20260505163609 23 241 6.4 24.1 0.00 0.00 0.00 33 1011.8
20260505163012 23 214 1.6 17.7 0.00 0.00 0.00 34 1011.7
20260505162507 23 250 4.8 17.7 0.00 0.00 0.00 34 1011.7
20260505162006 23 277 1.6 12.9 0.00 0.00 0.00 33 1011.7
20260505161507 23 49 0.0 1.6 0.00 0.00 0.00 33 1011.7
20260505161007 23 57 0.0 6.4 0.00 0.00 0.00 32 1011.7
20260505160504 23 57 0.0 8.0 0.00 0.00 0.00 32 1011.7
20260505153115 22 98 0.0 9.7 0.00 0.00 0.00 33 1011.6
20260505152557 22 92 0.0 0.0 0.00 0.00 0.00 34 1011.5
20260505152057 22 92 0.0 0.0 0.00 0.00 0.00 34 1011.4
20260505151604 22 92 0.0 0.0 0.00 0.00 0.00 34 1011.7
20260505151057 22 92 0.0 4.8 0.00 0.00 0.00 35 1011.8
20260505150559 21 92 1.6 4.8 0.00 0.00 0.00 34 1011.7
20260505140554 20 11 0.0 3.2 0.00 0.00 0.00 37 1011.4
20260505140104 20 11 0.0 3.2 0.00 0.00 0.00 41 1011.5
20260505124543 20 273 0.0 0.0 0.00 0.00 0.00 36 1010.1
20260505124041 20 273 0.0 0.0 0.00 0.00 0.00 36 1010.2
20260505123541 20 273 0.0 1.6 0.00 0.00 0.00 36 1010.0
20260505123041 19 273 0.0 1.6 0.00 0.00 0.00 36 1009.8
20260505122544 19 273 0.0 1.6 0.00 0.00 0.00 36 1010.0
20260505122039 20 273 0.0 3.2 0.00 0.00 0.00 36 1010.0
20260505121542 20 273 0.0 3.2 0.00 0.00 0.00 35 1009.9
20260505121038 20 291 0.0 0.0 0.00 0.00 0.00 35 1010.0
20260505120538 20 290 0.0 0.0 0.00 0.00 0.00 34 1009.9
20260505120036 20 291 0.0 1.6 0.00 0.00 0.00 34 1009.8
20260505115534 20 290 0.0 8.0 0.00 0.00 0.00 32 1009.7
20260505115036 21 290 0.0 8.0 0.00 0.00 0.00 32 1009.5
20260505114539 21 287 0.0 3.2 0.00 0.00 0.00 30 1009.4
20260505114035 21 287 0.0 6.4 0.00 0.00 0.00 29 1009.3
20260505113534 21 287 1.6 11.3 0.00 0.00 0.00 30 1009.2
20260505113034 21 266 3.2 11.3 0.00 0.00 0.00 30 1009.2
20260505112534 21 240 0.0 8.0 0.00 0.00 0.00 30 1009.3
20260505112034 21 240 0.0 8.0 0.00 0.00 0.00 30 1009.3
20260505111538 21 240 0.0 9.7 0.00 0.00 0.00 31 1009.3
20260505111033 20 232 0.0 9.7 0.00 0.00 0.00 32 1009.4
20260505110532 20 232 0.0 4.8 0.00 0.00 0.00 33 1009.3